Chattanooga, TN

7:54 AM EST on November 20, 2017 (GMT -0500)
Lovell

Weather History for KCHA - June, 2012

Change the Weather History Date:

Monday, June 25, 2012

  Actual Average Record
Temperature  
Mean Temperature 86 °F 78 °F  
Max Temperature 98 °F 89 °F 102 °F (1952)
Min Temperature 73 °F 68 °F 50 °F (1974)
Cooling Degree Days 21 13  
Month to date cooling degree days 280 275  
Year to date cooling degree days 705 471  
Since 1 June cooling degree days 280 275  
Growing Degree Days 36 (Base 50)    
Moisture  
Dew Point 64 °F    
Average Humidity 57    
Maximum Humidity 84    
Minimum Humidity 29    
Precipitation  
Precipitation 0.00 in 0.14 in 2.03 in (1923)
Month to date precipitation 2.43 3.32  
Year to date precipitation 20.37 26.14  
Snow  
Snow 0.00 in - - ()
Month to date snowfall 0.0  
Since 1 June snowfall 0.0  
Snow Depth 0.00 in    
Sea Level Pressure  
Sea Level Pressure 29.79 in    
Wind  
Wind Speed 7 mph (NNE)    
Max Wind Speed 17 mph    
Max Gust Speed 22 mph    
Visibility 10 miles    
Events      
T = Trace of Precipitation, MM = Missing Value Source: NWS Daily Summary

Daily Weather History Graph

Daily Weather History Graph

Search for Another Location

Airport or City:

Trip Planner

Search our weather history database for the weather conditions in past years. The results will help you decide how hot, cold, wet, or windy it might be!

Date:

Astronomy

Jun. 25, 2012 Rise Set
Actual Time 6:28 AM EDT 8:58 PM EDT
Civil Twilight 5:58 AM EDT 9:28 PM EDT
Nautical Twilight 5:21 AM EDT 10:05 PM EDT
Astronomical Twilight 4:41 AM EDT 10:45 PM EDT
Moon 12:23 PM EDT (6/25) 12:09 AM EDT (6/25)
Length of Visible Light 15h 29m
Length of Day
14h 30m
Waxing Crescent, 34% of the Moon is Illuminated
Jun 25
Waxing Crescent
Jun 26
First Quarter
Jul 3
Full
Jul 10
Last Quarter
Jul 19
New

Hourly Weather History & Observations

Time (EDT) Temp. Heat Index Dew Point Humidity Pressure Visibility Wind Dir Wind Speed Gust Speed Precip Events Conditions
12:53 AM 79.0 °F - 64.9 °F 62% 29.86 in 10.0 mi Calm Calm - N/A   Mostly Cloudy
1:53 AM 77.0 °F - 66.0 °F 69% 29.85 in 10.0 mi Calm Calm - N/A   Scattered Clouds
2:53 AM 77.0 °F - 66.0 °F 69% 29.84 in 10.0 mi Calm Calm - N/A   Scattered Clouds
3:53 AM 75.9 °F - 66.9 °F 74% 29.83 in 10.0 mi Calm Calm - N/A   Partly Cloudy
4:53 AM 75.0 °F - 69.1 °F 82% 29.84 in 10.0 mi Calm Calm - N/A   Partly Cloudy
5:53 AM 73.9 °F - 68.0 °F 82% 29.85 in 10.0 mi Calm Calm - N/A   Partly Cloudy
6:53 AM 73.0 °F - 68.0 °F 84% 29.86 in 10.0 mi Calm Calm - N/A   Partly Cloudy
7:53 AM 75.0 °F - 69.1 °F 82% 29.87 in 10.0 mi Calm Calm - N/A   Partly Cloudy
8:53 AM 79.0 °F - 69.1 °F 72% 29.87 in 10.0 mi Calm Calm - N/A   Partly Cloudy
9:53 AM 82.0 °F 84.9 °F 68.0 °F 62% 29.86 in 10.0 mi South 4.6 mph - N/A   Partly Cloudy
10:53 AM 84.0 °F 87.8 °F 69.1 °F 61% 29.84 in 10.0 mi Calm Calm - N/A   Scattered Clouds
11:53 AM 88.0 °F 91.4 °F 68.0 °F 51% 29.83 in 10.0 mi Calm Calm - N/A   Scattered Clouds
12:53 PM 91.9 °F 94.5 °F 66.0 °F 42% 29.81 in 10.0 mi NNE 4.6 mph - N/A   Scattered Clouds
1:53 PM 95.0 °F 94.8 °F 60.1 °F 31% 29.78 in 10.0 mi NNE 13.8 mph 21.9 mph N/A   Scattered Clouds
2:53 PM 96.1 °F 95.6 °F 59.0 °F 29% 29.75 in 10.0 mi NNE 12.7 mph 17.3 mph N/A   Scattered Clouds
3:53 PM 97.0 °F 97.4 °F 61.0 °F 30% 29.73 in 10.0 mi North 16.1 mph - N/A   Scattered Clouds
4:53 PM 97.0 °F 97.4 °F 61.0 °F 30% 29.72 in 10.0 mi NNE 16.1 mph 20.7 mph N/A   Scattered Clouds
5:53 PM 97.0 °F 96.9 °F 60.1 °F 29% 29.70 in 10.0 mi NNE 12.7 mph 19.6 mph N/A   Scattered Clouds
6:53 PM 96.1 °F 95.6 °F 59.0 °F 29% 29.70 in 10.0 mi NNE 17.3 mph 21.9 mph N/A   Scattered Clouds
7:53 PM 93.9 °F 93.2 °F 59.0 °F 31% 29.71 in 10.0 mi North 13.8 mph 19.6 mph N/A   Partly Cloudy
8:53 PM 90.0 °F 89.7 °F 60.1 °F 37% 29.72 in 10.0 mi NNE 13.8 mph - N/A   Clear
9:53 PM 88.0 °F 87.9 °F 61.0 °F 40% 29.72 in 10.0 mi NNE 10.4 mph - N/A   Clear
10:53 PM 86.0 °F 86.1 °F 61.0 °F 43% 29.74 in 10.0 mi North 9.2 mph - N/A   Clear
11:53 PM 84.0 °F 84.4 °F 61.0 °F 46% 29.75 in 10.0 mi NNE 13.8 mph - N/A   Clear